SCP
-0 -0 -0 -0 0 -0 -0 0 0 0 0 0 0 0 0 0 0 0 -0 -0 -0 -0 -0 0 0 -0 0 0 0 0 0 0 0 0 0 0 0 0 0 0 0 0 0
-0 -0 -0 0 -0 0 0 0 0 0 0 0 0 0 0 0 0 -0 -0 0 0 0 -0 0 0 0 0 0 0 0 0 0 0 0 0 0 0 0 0 0 0 0 0
0 0 0 -0 0 0 0 0 0 0 0 0 0 0 0 0 -0 -0 -0 -0 0 0 0 0 0 0 0 0 0 0 0 0 0 0 0 0 0 0 0 0 0 0 0
0 0 0 0 0 0 0 0 0 0 0 0 0 0 0 0 0 -0 -0 -0 -0 0 0 0 0 0 0 0 0 0 0 0 0 0 0 0 0 0 0 0 0 0 0
0 0 0 0 0 0 0 0 0 0 0 0 0 0 0 0 0 0 0 -0 -0 -0 0 0 0 0 0 0 0 0 0 0 0 0 0 0 0 0 0 0 0 0 0
0 0 0 -0 -0 -0 -0 0 0 0 0 0 0 0 0 0 0 0 0 0 0 -0 -0 0 0 0 0 0 0 0 0 0 0 0 0 0 0 0 0 0 0 0 0
0 0 0 -0 -0 -0 -0 -0 -0 -0 0 0 0 0 0 0 0 0 0 0 0 0 0 0 0 0 0 0 0 0 0 0 0 0 0 0 0 0 0 0 0 0 0
-0 -0 -0 -0 -0 -0 -0 -0 -0 0 0 0 0 0 0 0 0 0 0 0 0 0 0 0 0 0 0 0 0 0 0 0 0 0 0 0 0 0 0 0 0 0 0
0 0 0 0 0 0 0 0 0 0 0 0 0 0 0 0 0 0 0 0 0 0 0 0 0 0 0 0 0 0 0 0 0 0 0 0 0 0 0 0 0 0 0
0 0 0 0 0 0 0 0 0 0 0 0 0 0 0 0 0 0 0 0 0 0 0 0 0 0 0 0 0 0 0 0 0 0 0 0 0 0 0 0 0 0 0
0 0 0 0 0 0 0 0 0 0 0 0 0 0 0 0 0 0 0 0 0 0 0 0 0 0 0 0 0 0 0 0 0 0 0 0 0 0 0 0 0 0 0
0 0 0 0 0 0 0 0 0 0 0 0 0 0 0 0 0 0 0 0 0 0 0 0 0 0 0 0 0 0 0 0 0 0 0 0 0 0 0 0 0 0 0
0 0 0 0 0 0 0 0 0 0 0 0 0 0 0 0 0 0 0 0 0 0 0 0 0 0 0 0 0 0 0 0 0 0 0 0 0 0 0 0 0 0 0
0 0 0 0 0 0 0 0 0 0 0 0 0 0 0 0 0 0 0 0 0 0 0 0 0 0 0 0 0 0 0 0 0 0 0 0 0 0 0 0 0 0 0
0 0 0 0 0 0 -0 0 0 0 0 0 0 0 0 0 0 0 0 0 0 0 0 0 0 0 0 0 0 0 0 0 0 0 0 0 0 0 0 0 0 0 0
0 0 0 0 0 0 0 0 0 0 0 0 0 0 0 0 0 0 0 0 0 0 0 0 0 0 0 0 0 0 0 0 0 0 0 0 0 0 0 0 0 0 0
0 0 0 0 0 0 0 0 0 0 0 0 0 0 0 0 0 0 0 0 0 0 0 0 0 0 0 0 0 0 0 0 0 0 0 0 0 0 0 0 0 0 0
0 0 0 0 0 0 0 0 0 0 0 0 0 0 0 0 0 0 0 0 0 0 0 0 0 0 0 0 0 0 0 0 0 0 0 0 0 0 0 0 0 0 0
0 0 0 0 0 0 0 0 0 0 0 0 0 0 0 0 0 0 0 0 0 0 0 0 0 0 0 0 0 0 0 0 0 0 0 0 0 0 0 0 0 0 0
0 0 0 0 0 0 0 0 0 0 0 0 0 0 0 0 0 0 0 0 0 0 0 0 0 0 0 0 0 0 0 0 0 0 0 0 0 0 0 0 0 0 0
0 0 0 0 0 0 0 0 0 0 0 0 0 0 0 0 0 0 0 0 0 0 0 0 0 0 0 0 0 0 0 0 0 0 0 0 0 0 0 0 0 0 0
0 0 0 0 0 0 0 0 0 0 0 0 0 0 0 0 0 0 0 0 0 0 0 0 0 0 0 0 0 0 0 0 0 0 0 0 0 0 0 0 0 0 0
0 0 0 0 0 0 0 0 0 0 0 0 0 0 0 0 0 0 0 0 0 0 0 0 0 0 0 0 0 0 0 0 0 0 0 0 0 0 0 0 0 0 0
0 0 0 0 0 0 0 0 0 0 0 0 0 0 0 0 0 0 0 0 0 0 0 0 0 0 0 0 0 0 0 0 0 0 0 0 0 0 0 0 0 0 0
0 0 0 0 0 0 0 0 0 0 0 0 0 0 0 0 0 0 0 0 0 0 0 0 0 0 0 0 0 0 0 0 0 0 0 0 0 0 0 0 0 0 0
0 0 0 0 0 0 0 0 0 0 0 0 0 0 0 0 0 0 0 0 0 0 0 0 0 0 0 0 0 0 0 0 0 0 0 0 0 0 0 0 0 0 0
Wind_Speed_500mb
25 17 16 15 17 16 11 10 13 16 14 15 19 24 27 25 24 23 19 14 10 14 19 22 17 4 18 17 13 15 13 14 15 17 12 13 17 17 19 18 14 18 17
21 14 12 12 12 14 17 12 15 17 20 20 20 21 23 26 26 22 23 17 11 14 16 22 18 8 5 14 23 22 23 19 25 25 22 20 22 20 21 20 18 18 18
12 12 9 7 7 8 9 8 10 16 20 22 25 23 24 25 20 19 21 20 20 17 17 17 12 10 15 17 19 25 34 34 31 34 35 30 28 28 25 23 22 20 17
15 16 14 10 7 9 11 11 11 12 16 22 26 27 28 31 26 23 21 17 18 21 23 19 20 25 21 30 25 30 29 36 39 47 45 37 30 26 25 27 24 21 20
17 19 18 14 14 18 17 17 20 21 20 20 22 26 29 31 31 32 26 22 19 19 23 29 25 22 24 39 39 34 32 35 36 41 42 40 37 32 23 24 23 22 22
19 21 22 21 18 20 24 25 29 27 28 27 28 27 25 28 32 34 36 33 28 27 25 29 37 47 45 49 33 40 38 43 41 37 38 37 37 37 30 27 26 27 23
23 25 25 24 23 23 25 26 27 29 32 34 38 36 33 34 35 35 36 42 42 37 34 34 35 38 44 52 51 45 46 43 43 39 38 34 33 35 33 31 31 29 27
20 23 25 25 24 24 24 24 26 27 32 37 40 41 41 41 42 41 41 42 45 48 44 41 42 40 38 42 49 56 46 49 47 44 43 41 38 36 37 35 36 33 32
19 18 15 17 22 26 28 28 30 31 33 36 38 43 46 48 46 46 50 50 50 50 52 53 50 47 44 40 41 49 49 56 53 54 50 49 43 42 44 39 41 38 35
14 16 19 19 18 16 20 26 31 34 37 39 40 42 44 50 55 51 50 52 53 56 58 59 59 58 53 50 43 47 46 48 65 65 63 59 51 45 45 44 42 43 39
7 11 14 16 18 18 18 19 20 22 25 28 32 38 44 47 47 47 48 48 50 58 64 62 65 64 63 60 56 52 54 57 58 73 72 68 60 56 52 52 45 49 44
7 11 15 19 22 23 24 24 25 26 27 29 31 33 34 34 37 45 50 53 56 57 65 61 60 64 68 67 71 62 66 66 64 60 71 72 69 65 61 56 53 52 51
5 9 14 19 24 26 27 28 30 32 33 35 38 40 41 42 43 43 42 47 57 58 60 61 59 52 61 73 79 78 76 75 71 69 61 70 75 73 70 65 61 55 54
6 11 17 20 23 26 29 32 35 35 34 37 41 44 46 47 50 51 51 50 49 49 58 62 59 59 61 73 82 87 86 87 77 75 72 61 74 79 77 74 69 64 58
6 11 16 21 26 32 38 42 44 43 42 43 46 48 52 54 55 55 55 55 54 55 56 53 59 58 57 57 70 85 93 98 87 84 81 73 67 78 83 81 78 73 64
5 9 15 22 28 34 40 43 45 44 45 46 48 51 53 56 60 62 62 61 61 59 59 59 58 60 62 62 70 64 86 99 93 92 93 85 76 73 84 87 85 81 73
5 9 15 21 29 36 40 43 45 46 47 49 51 51 53 55 59 63 65 64 61 63 62 62 60 61 65 65 72 68 54 83 108 87 95 98 90 83 79 89 90 88 83
5 9 14 22 30 36 41 45 47 49 50 51 54 56 58 60 62 64 66 64 62 62 62 61 60 62 63 65 69 72 74 59 78 90 97 98 99 98 89 86 93 93 89
9 8 15 23 32 40 45 49 51 52 51 52 54 57 61 64 63 65 67 68 67 64 63 63 62 60 65 63 66 70 73 82 70 80 97 90 90 94 100 92 91 94 94
18 16 21 27 35 44 50 51 52 51 49 51 55 60 64 67 68 68 69 70 68 68 65 62 64 60 61 63 65 70 75 74 82 80 71 95 108 93 93 103 95 95 96
25 23 26 32 38 49 56 57 58 55 54 54 58 62 66 69 70 73 75 75 68 65 64 61 60 61 61 56 61 69 74 76 78 86 87 69 84 95 93 96 103 101 97
30 29 31 36 42 52 57 58 58 61 63 64 64 66 69 72 73 75 77 75 64 62 64 62 58 61 61 54 48 43 41 52 66 71 78 102 82 76 88 92 108 99 104
35 34 35 40 46 54 54 56 57 60 64 69 71 74 74 74 73 73 74 73 63 58 62 62 59 57 61 58 51 40 19 24 33 34 51 61 74 87 95 85 87 103 108
35 36 38 43 48 52 52 54 58 64 72 73 78 82 82 78 75 72 70 68 65 57 59 61 60 58 56 61 52 51 61 64 31 35 39 35 58 76 90 93 87 100 96
35 37 38 44 49 46 49 53 58 64 69 75 80 84 82 79 76 74 72 68 63 61 63 62 61 61 62 63 61 63 60 60 62 62 55 67 57 46 50 66 81 96 85
36 36 39 44 44 44 49 51 58 64 70 76 79 82 83 83 81 75 73 73 72 70 68 63 63 66 64 64 64 69 73 56 53 56 65 65 61 68 56 64 71 70 66
Wind_Direction_500mb
36 39 49 39 28 17 334 309 302 295 306 311 315 318 320 321 324 325 322 329 337 315 315 318 318 273 227 243 252 257 242 246 225 216 224 262 262 253 240 247 223 188 185
8 13 19 39 30 4 2 323 313 305 303 298 308 313 318 319 318 323 318 310 291 272 283 278 289 247 299 261 257 252 254 247 242 242 254 266 275 265 245 229 210 190 185
7 353 332 351 8 329 14 5 322 314 304 306 307 309 315 317 309 318 323 310 300 280 301 266 268 221 266 271 267 265 247 256 259 254 256 257 260 266 245 217 208 204 183
353 347 336 287 284 310 315 300 305 312 304 298 297 297 303 313 303 300 313 305 303 301 270 272 250 258 267 265 265 270 262 256 260 255 256 253 250 254 247 210 209 203 200
331 331 334 330 312 297 292 289 299 300 294 292 293 293 294 297 297 295 294 301 297 292 287 265 263 255 266 270 252 257 262 265 277 245 247 248 249 244 229 223 217 213 210
312 307 306 309 302 281 276 287 284 288 287 290 292 291 289 285 287 290 286 289 291 290 278 272 263 257 266 278 270 242 254 264 270 251 245 246 238 233 214 228 226 220 224
309 306 301 295 293 294 291 282 284 286 284 289 289 290 289 290 286 280 285 285 285 285 281 278 270 273 276 271 274 278 250 261 265 259 243 237 231 228 219 227 235 232 230
315 305 300 295 293 292 296 299 298 298 291 286 288 290 288 289 287 284 278 276 280 284 281 277 278 276 272 279 273 273 247 250 263 259 246 238 235 235 233 225 237 234 234
16 6 346 316 298 293 293 294 295 295 295 289 288 288 290 290 291 293 283 277 276 276 277 277 274 273 275 275 276 278 275 239 251 258 252 244 241 241 237 236 238 238 237
14 21 25 25 16 343 310 301 299 297 294 293 291 291 290 284 286 283 288 281 274 276 277 275 273 272 269 272 269 268 277 259 243 251 252 248 245 243 239 239 238 243 238
29 33 31 25 21 14 10 4 356 346 337 324 311 299 292 289 289 289 286 287 287 284 276 275 270 269 269 269 267 270 258 261 268 249 247 246 246 245 244 244 237 246 243
28 26 20 15 9 7 3 358 352 346 342 337 332 328 327 322 308 294 289 287 284 282 279 284 278 273 265 267 266 261 257 264 267 273 260 248 245 245 244 245 242 240 247
21 9 8 6 1 359 355 352 348 344 341 335 332 329 327 323 317 312 307 298 286 283 283 282 279 279 271 265 264 262 258 257 263 268 268 258 250 245 244 243 245 242 244
345 354 352 352 349 352 352 348 344 340 337 337 337 335 330 324 320 316 315 311 301 299 288 283 282 277 270 273 272 260 259 258 257 261 266 266 253 249 245 243 242 244 243
323 345 344 344 344 344 343 341 340 336 336 338 338 335 332 329 326 322 317 311 307 304 294 292 280 275 271 256 258 264 263 256 258 256 259 261 260 249 247 245 243 242 244
303 338 346 348 344 339 333 332 332 331 333 334 335 335 333 329 326 322 318 315 311 304 298 294 287 281 272 263 258 258 266 259 260 259 259 256 257 256 245 245 245 243 241
303 334 346 353 346 340 333 332 330 329 329 330 331 331 328 326 323 320 317 315 309 303 299 294 289 282 280 274 268 264 266 262 262 258 258 259 255 253 251 243 244 244 242
267 338 341 343 341 335 330 329 329 328 327 326 327 327 324 322 321 317 314 313 310 304 298 294 290 285 280 277 273 267 263 263 265 265 265 259 259 255 250 247 242 242 242
243 317 335 336 336 334 329 326 327 326 323 321 322 323 322 320 319 316 314 313 310 304 298 295 293 288 285 280 277 273 265 258 260 265 261 258 259 260 251 248 245 241 241
246 284 316 325 330 330 327 322 321 320 317 320 323 322 321 320 319 316 313 311 307 301 297 294 292 290 286 285 281 275 271 264 256 254 255 260 262 260 255 249 246 242 240
246 273 296 314 322 324 324 322 322 323 324 325 324 322 321 319 319 316 313 311 305 298 295 293 292 291 289 288 288 283 276 270 265 252 246 255 257 253 249 250 247 244 240
248 268 286 306 316 321 322 322 321 322 324 324 324 323 321 320 320 318 315 310 302 294 290 289 288 287 286 284 278 281 293 291 275 269 255 247 250 258 255 248 247 246 241
248 266 283 299 310 317 317 319 317 317 321 324 324 323 323 322 322 319 314 307 299 290 286 286 285 283 282 279 269 253 275 255 288 276 264 257 255 257 255 252 249 262 240
247 265 279 296 306 312 316 316 318 321 322 324 323 324 325 325 323 319 314 308 303 297 289 286 282 280 277 275 271 261 252 254 270 281 266 256 244 246 252 255 250 252 248
250 264 279 294 303 306 313 314 317 318 319 322 324 324 325 324 322 317 314 311 306 301 297 291 284 278 273 270 263 261 256 253 252 254 264 263 255 256 253 257 252 245 251
252 264 281 294 301 305 311 313 316 318 321 323 325 325 326 325 323 324 322 317 312 307 303 297 289 285 277 269 264 260 257 246 240 244 252 257 264 259 265 264 253 251 251
Wind_Speed_850mb
25 17 16 15 17 16 11 10 13 16 14 15 19 24 27 25 24 23 19 14 10 14 19 22 17 4 18 17 13 15 13 14 15 17 12 13 17 17 19 18 14 18 17
21 14 12 12 12 14 17 12 15 17 20 20 20 21 23 26 26 22 23 17 11 14 16 22 18 8 5 14 23 22 23 19 25 25 22 20 22 20 21 20 18 18 18
12 12 9 7 7 8 9 8 10 16 20 22 25 23 24 25 20 19 21 20 20 17 17 17 12 10 15 17 19 25 34 34 31 34 35 30 28 28 25 23 22 20 17
15 16 14 10 7 9 11 11 11 12 16 22 26 27 28 31 26 23 21 17 18 21 23 19 20 25 21 30 25 30 29 36 39 47 45 37 30 26 25 27 24 21 20
17 19 18 14 14 18 17 17 20 21 20 20 22 26 29 31 31 32 26 22 19 19 23 29 25 22 24 39 39 34 32 35 36 41 42 40 37 32 23 24 23 22 22
19 21 22 21 18 20 24 25 29 27 28 27 28 27 25 28 32 34 36 33 28 27 25 29 37 47 45 49 33 40 38 43 41 37 38 37 37 37 30 27 26 27 23
23 25 25 24 23 23 25 26 27 29 32 34 38 36 33 34 35 35 36 42 42 37 34 34 35 38 44 52 51 45 46 43 43 39 38 34 33 35 33 31 31 29 27
20 23 25 25 24 24 24 24 26 27 32 37 40 41 41 41 42 41 41 42 45 48 44 41 42 40 38 42 49 56 46 49 47 44 43 41 38 36 37 35 36 33 32
19 18 15 17 22 26 28 28 30 31 33 36 38 43 46 48 46 46 50 50 50 50 52 53 50 47 44 40 41 49 49 56 53 54 50 49 43 42 44 39 41 38 35
14 16 19 19 18 16 20 26 31 34 37 39 40 42 44 50 55 51 50 52 53 56 58 59 59 58 53 50 43 47 46 48 65 65 63 59 51 45 45 44 42 43 39
7 11 14 16 18 18 18 19 20 22 25 28 32 38 44 47 47 47 48 48 50 58 64 62 65 64 63 60 56 52 54 57 58 73 72 68 60 56 52 52 45 49 44
7 11 15 19 22 23 24 24 25 26 27 29 31 33 34 34 37 45 50 53 56 57 65 61 60 64 68 67 71 62 66 66 64 60 71 72 69 65 61 56 53 52 51
5 9 14 19 24 26 27 28 30 32 33 35 38 40 41 42 43 43 42 47 57 58 60 61 59 52 61 73 79 78 76 75 71 69 61 70 75 73 70 65 61 55 54
6 11 17 20 23 26 29 32 35 35 34 37 41 44 46 47 50 51 51 50 49 49 58 62 59 59 61 73 82 87 86 87 77 75 72 61 74 79 77 74 69 64 58
6 11 16 21 26 32 38 42 44 43 42 43 46 48 52 54 55 55 55 55 54 55 56 53 59 58 57 57 70 85 93 98 87 84 81 73 67 78 83 81 78 73 64
5 9 15 22 28 34 40 43 45 44 45 46 48 51 53 56 60 62 62 61 61 59 59 59 58 60 62 62 70 64 86 99 93 92 93 85 76 73 84 87 85 81 73
5 9 15 21 29 36 40 43 45 46 47 49 51 51 53 55 59 63 65 64 61 63 62 62 60 61 65 65 72 68 54 83 108 87 95 98 90 83 79 89 90 88 83
5 9 14 22 30 36 41 45 47 49 50 51 54 56 58 60 62 64 66 64 62 62 62 61 60 62 63 65 69 72 74 59 78 90 97 98 99 98 89 86 93 93 89
9 8 15 23 32 40 45 49 51 52 51 52 54 57 61 64 63 65 67 68 67 64 63 63 62 60 65 63 66 70 73 82 70 80 97 90 90 94 100 92 91 94 94
18 16 21 27 35 44 50 51 52 51 49 51 55 60 64 67 68 68 69 70 68 68 65 62 64 60 61 63 65 70 75 74 82 80 71 95 108 93 93 103 95 95 96
25 23 26 32 38 49 56 57 58 55 54 54 58 62 66 69 70 73 75 75 68 65 64 61 60 61 61 56 61 69 74 76 78 86 87 69 84 95 93 96 103 101 97
30 29 31 36 42 52 57 58 58 61 63 64 64 66 69 72 73 75 77 75 64 62 64 62 58 61 61 54 48 43 41 52 66 71 78 102 82 76 88 92 108 99 104
35 34 35 40 46 54 54 56 57 60 64 69 71 74 74 74 73 73 74 73 63 58 62 62 59 57 61 58 51 40 19 24 33 34 51 61 74 87 95 85 87 103 108
35 36 38 43 48 52 52 54 58 64 72 73 78 82 82 78 75 72 70 68 65 57 59 61 60 58 56 61 52 51 61 64 31 35 39 35 58 76 90 93 87 100 96
35 37 38 44 49 46 49 53 58 64 69 75 80 84 82 79 76 74 72 68 63 61 63 62 61 61 62 63 61 63 60 60 62 62 55 67 57 46 50 66 81 96 85
36 36 39 44 44 44 49 51 58 64 70 76 79 82 83 83 81 75 73 73 72 70 68 63 63 66 64 64 64 69 73 56 53 56 65 65 61 68 56 64 71 70 66
Wind_Direction_850mb
36 39 49 39 28 17 334 309 302 295 306 311 315 318 320 321 324 325 322 329 337 315 315 318 318 273 227 243 252 257 242 246 225 216 224 262 262 253 240 247 223 188 185
8 13 19 39 30 4 2 323 313 305 303 298 308 313 318 319 318 323 318 310 291 272 283 278 289 247 299 261 257 252 254 247 242 242 254 266 275 265 245 229 210 190 185
7 353 332 351 8 329 14 5 322 314 304 306 307 309 315 317 309 318 323 310 300 280 301 266 268 221 266 271 267 265 247 256 259 254 256 257 260 266 245 217 208 204 183
353 347 336 287 284 310 315 300 305 312 304 298 297 297 303 313 303 300 313 305 303 301 270 272 250 258 267 265 265 270 262 256 260 255 256 253 250 254 247 210 209 203 200
331 331 334 330 312 297 292 289 299 300 294 292 293 293 294 297 297 295 294 301 297 292 287 265 263 255 266 270 252 257 262 265 277 245 247 248 249 244 229 223 217 213 210
312 307 306 309 302 281 276 287 284 288 287 290 292 291 289 285 287 290 286 289 291 290 278 272 263 257 266 278 270 242 254 264 270 251 245 246 238 233 214 228 226 220 224
309 306 301 295 293 294 291 282 284 286 284 289 289 290 289 290 286 280 285 285 285 285 281 278 270 273 276 271 274 278 250 261 265 259 243 237 231 228 219 227 235 232 230
315 305 300 295 293 292 296 299 298 298 291 286 288 290 288 289 287 284 278 276 280 284 281 277 278 276 272 279 273 273 247 250 263 259 246 238 235 235 233 225 237 234 234
16 6 346 316 298 293 293 294 295 295 295 289 288 288 290 290 291 293 283 277 276 276 277 277 274 273 275 275 276 278 275 239 251 258 252 244 241 241 237 236 238 238 237
14 21 25 25 16 343 310 301 299 297 294 293 291 291 290 284 286 283 288 281 274 276 277 275 273 272 269 272 269 268 277 259 243 251 252 248 245 243 239 239 238 243 238
29 33 31 25 21 14 10 4 356 346 337 324 311 299 292 289 289 289 286 287 287 284 276 275 270 269 269 269 267 270 258 261 268 249 247 246 246 245 244 244 237 246 243
28 26 20 15 9 7 3 358 352 346 342 337 332 328 327 322 308 294 289 287 284 282 279 284 278 273 265 267 266 261 257 264 267 273 260 248 245 245 244 245 242 240 247
21 9 8 6 1 359 355 352 348 344 341 335 332 329 327 323 317 312 307 298 286 283 283 282 279 279 271 265 264 262 258 257 263 268 268 258 250 245 244 243 245 242 244
345 354 352 352 349 352 352 348 344 340 337 337 337 335 330 324 320 316 315 311 301 299 288 283 282 277 270 273 272 260 259 258 257 261 266 266 253 249 245 243 242 244 243
323 345 344 344 344 344 343 341 340 336 336 338 338 335 332 329 326 322 317 311 307 304 294 292 280 275 271 256 258 264 263 256 258 256 259 261 260 249 247 245 243 242 244
303 338 346 348 344 339 333 332 332 331 333 334 335 335 333 329 326 322 318 315 311 304 298 294 287 281 272 263 258 258 266 259 260 259 259 256 257 256 245 245 245 243 241
303 334 346 353 346 340 333 332 330 329 329 330 331 331 328 326 323 320 317 315 309 303 299 294 289 282 280 274 268 264 266 262 262 258 258 259 255 253 251 243 244 244 242
267 338 341 343 341 335 330 329 329 328 327 326 327 327 324 322 321 317 314 313 310 304 298 294 290 285 280 277 273 267 263 263 265 265 265 259 259 255 250 247 242 242 242
243 317 335 336 336 334 329 326 327 326 323 321 322 323 322 320 319 316 314 313 310 304 298 295 293 288 285 280 277 273 265 258 260 265 261 258 259 260 251 248 245 241 241
246 284 316 325 330 330 327 322 321 320 317 320 323 322 321 320 319 316 313 311 307 301 297 294 292 290 286 285 281 275 271 264 256 254 255 260 262 260 255 249 246 242 240
246 273 296 314 322 324 324 322 322 323 324 325 324 322 321 319 319 316 313 311 305 298 295 293 292 291 289 288 288 283 276 270 265 252 246 255 257 253 249 250 247 244 240
248 268 286 306 316 321 322 322 321 322 324 324 324 323 321 320 320 318 315 310 302 294 290 289 288 287 286 284 278 281 293 291 275 269 255 247 250 258 255 248 247 246 241
248 266 283 299 310 317 317 319 317 317 321 324 324 323 323 322 322 319 314 307 299 290 286 286 285 283 282 279 269 253 275 255 288 276 264 257 255 257 255 252 249 262 240
247 265 279 296 306 312 316 316 318 321 322 324 323 324 325 325 323 319 314 308 303 297 289 286 282 280 277 275 271 261 252 254 270 281 266 256 244 246 252 255 250 252 248
250 264 279 294 303 306 313 314 317 318 319 322 324 324 325 324 322 317 314 311 306 301 297 291 284 278 273 270 263 261 256 253 252 254 264 263 255 256 253 257 252 245 251
252 264 281 294 301 305 311 313 316 318 321 323 325 325 326 325 323 324 322 317 312 307 303 297 289 285 277 269 264 260 257 246 240 244 252 257 264 259 265 264 253 251 251